Wind_Speed
30 30 29 28 26 24 23 22 21 19 18 17 16 14 14 15 14 14 14 12 9 8 10 12 13 13 11 9 8 7 6 6 5 5 5 5 5 5 6 6 7 7
32 31 30 29 27 26 25 24 22 20 19 19 17 16 17 16 15 15 14 12 9 8 9 12 13 12 9 7 6 6 6 5 5 5 5 5 5 5 6 6 7 8
33 32 32 31 29 28 28 26 23 22 21 20 18 18 18 16 16 15 13 11 9 8 9 11 12 11 9 7 7 7 6 6 5 6 6 5 5 6 6 7 8 9
34 33 33 32 31 31 29 27 26 24 23 21 20 19 18 16 16 15 13 11 9 8 9 11 12 12 10 9 8 8 7 7 7 6 6 6 6 6 7 7 8 9
35 34 34 33 32 32 31 29 27 26 24 23 21 20 18 17 17 16 13 10 8 8 9 11 13 13 12 10 10 9 8 8 7 7 6 6 6 7 7 7 8 9
36 35 35 34 34 33 32 30 29 28 26 24 22 21 19 18 18 17 13 9 8 8 8 10 14 14 13 12 12 11 10 9 8 8 7 7 7 8 9 10 10 10
37 36 35 35 35 34 33 32 31 29 27 26 25 23 21 19 19 17 14 12 11 9 9 12 15 16 14 14 15 14 12 11 9 9 9 8 8 9 10 11 11 11
38 37 36 36 36 35 35 34 31 31 30 28 26 24 22 20 20 19 17 15 14 12 11 13 16 17 16 16 17 16 15 13 11 10 10 9 10 11 10 12 12 13
39 38 37 37 37 38 38 34 32 33 32 30 28 25 24 22 21 22 20 18 16 14 14 15 16 17 17 17 19 19 17 15 12 11 11 11 12 12 12 12 13 13
40 39 38 38 38 40 39 35 34 36 34 31 30 28 27 25 24 24 22 20 19 17 17 18 19 17 16 18 21 21 19 16 14 12 12 12 13 13 13 14 14 14
40 40 39 39 40 41 41 38 37 38 37 34 33 32 29 28 27 27 25 23 22 20 20 21 20 17 14 17 22 23 20 17 15 13 13 13 14 14 14 14 15 15
40 40 40 40 40 41 42 39 37 39 40 37 35 34 32 31 30 29 29 27 23 20 21 22 21 17 14 16 21 23 21 18 16 15 14 15 15 15 15 15 16 15
40 40 40 40 41 41 42 40 38 40 41 39 37 36 35 34 33 32 31 29 25 22 21 22 22 19 16 17 20 22 21 19 17 16 16 16 17 16 16 16 16 16
39 39 40 41 41 41 42 40 39 40 40 38 37 37 39 39 37 36 35 32 29 25 23 24 24 20 18 19 21 22 22 20 18 17 17 18 18 17 17 17 17 16
39 39 39 37 35 39 42 39 39 40 37 36 38 40 42 41 39 38 37 36 33 28 26 26 25 21 20 21 22 22 21 20 19 18 18 19 19 18 18 18 17 17
36 36 36 32 29 33 38 39 39 38 34 35 41 44 43 42 40 39 39 40 36 29 27 27 26 23 22 23 24 23 21 20 19 18 18 19 19 19 18 18 17 17
31 30 31 31 29 30 33 36 38 36 33 35 41 45 45 43 40 39 41 41 35 28 26 27 27 24 21 24 26 24 21 20 19 18 18 19 20 19 19 18 17 17
25 26 27 27 27 29 31 33 35 34 32 35 40 44 46 45 41 41 44 42 34 28 27 28 29 25 22 24 28 25 21 20 18 18 18 18 19 19 18 18 18 18
22 23 22 21 22 25 28 30 32 31 31 35 40 44 46 46 45 44 45 41 34 30 28 29 30 27 23 24 27 24 20 19 19 19 18 17 17 17 17 18 20 21
19 20 18 16 18 21 24 27 28 29 30 33 39 44 46 47 47 46 44 39 33 30 28 28 30 28 25 23 24 23 21 19 20 20 19 19 18 18 19 20 22 23
16 17 14 16 19 21 22 24 24 25 28 31 36 43 46 47 48 47 43 37 33 29 27 28 30 31 28 26 23 23 22 21 21 21 20 21 20 21 22 22 23 24
14 14 14 16 19 18 19 22 23 23 26 30 35 40 43 45 46 45 40 36 33 30 28 30 31 30 29 27 23 23 24 22 22 22 22 22 22 23 24 23 23 23
11 12 14 15 16 16 18 21 21 21 25 29 32 35 39 43 46 44 39 34 33 32 30 31 30 27 26 25 22 24 25 24 22 23 23 23 24 25 25 26 25 22
10 11 12 14 15 15 16 16 17 20 24 26 28 31 35 38 41 42 39 35 34 33 31 29 28 25 24 21 20 23 26 24 23 23 23 24 25 27 28 29 26 22
10 9 10 11 12 13 14 13 14 18 21 23 24 27 31 32 33 35 33 29 28 29 28 26 25 24 22 21 19 22 25 25 23 23 24 25 26 27 29 28 25 22
9 8 9 10 11 12 13 12 12 15 18 20 20 21 25 27 27 26 24 22 21 21 22 23 24 23 23 21 19 20 23 24 23 24 26 28 28 28 28 27 25 25
Wind_Direction
231 233 236 238 238 236 237 237 236 239 240 239 239 237 238 239 237 238 240 241 237 225 219 215 212 212 212 219 226 228 236 239 241 248 255 260 262 262 265 267 269 269
231 233 235 237 237 236 237 237 237 241 243 243 242 239 239 240 240 240 237 235 232 226 219 214 212 211 210 219 230 234 243 243 237 245 258 265 265 264 265 265 268 272
231 233 235 237 237 237 238 239 241 242 243 243 240 236 236 236 234 234 232 231 228 224 220 215 214 213 211 217 229 237 244 245 238 241 253 264 264 262 263 268 270 272
232 233 235 237 238 240 241 241 242 242 241 241 238 232 231 231 231 231 229 227 224 226 225 218 215 215 215 218 227 237 243 245 241 237 247 258 264 265 265 268 272 274
235 235 236 237 238 240 240 239 240 241 239 240 239 232 229 229 230 228 226 225 225 228 227 224 223 220 219 221 227 233 237 241 241 238 244 253 259 265 266 265 268 274
237 237 236 237 238 239 240 238 239 240 239 239 238 234 230 229 228 225 223 224 224 226 232 235 233 227 224 227 227 227 229 232 234 234 240 249 256 263 266 268 271 275
237 238 238 238 238 239 239 238 238 239 238 237 237 234 230 225 223 224 225 220 217 227 241 241 235 228 230 237 233 224 225 228 230 233 241 251 259 265 269 274 279 280
237 239 238 239 238 238 238 237 237 239 238 237 236 232 228 223 222 228 228 218 216 225 232 231 228 224 228 239 235 223 224 229 230 233 242 252 260 267 273 277 281 280
237 239 239 240 239 239 239 237 238 240 239 237 236 232 227 224 227 231 226 217 218 226 228 224 220 220 228 239 235 224 225 231 232 235 244 253 260 266 271 274 277 277
238 239 240 240 240 240 240 237 236 240 240 237 235 233 228 228 233 233 226 219 219 226 229 224 218 218 228 237 233 227 227 231 233 237 243 252 260 265 269 270 272 272
238 239 240 241 241 241 241 237 234 238 240 236 234 233 230 232 235 232 226 222 220 224 229 225 220 221 229 234 230 228 230 232 233 237 244 254 260 264 267 267 267 267
239 240 241 242 242 243 244 241 236 236 238 237 234 233 232 232 234 231 227 222 218 225 232 227 222 225 232 232 227 228 234 235 236 241 247 256 262 265 264 262 262 262
242 242 244 244 245 246 246 244 239 236 238 238 235 235 235 235 236 234 230 223 219 227 235 229 224 226 232 230 224 228 237 240 242 249 254 259 263 264 261 257 257 259
246 247 247 247 247 248 248 246 239 233 236 239 239 239 238 238 241 240 234 228 223 228 231 225 223 227 233 234 227 226 235 242 245 251 257 261 264 261 255 251 252 256
251 251 249 247 245 247 249 245 235 229 233 241 245 244 241 241 242 241 237 231 226 227 225 219 221 229 235 238 231 224 231 241 246 251 256 261 262 257 251 249 251 255
254 255 252 248 244 247 250 246 238 233 234 240 243 244 244 244 242 240 237 231 226 222 219 218 224 232 238 239 230 223 230 241 247 252 255 258 258 252 248 249 251 255
257 258 257 252 248 251 253 251 247 242 239 242 243 243 244 243 240 237 233 227 222 218 219 223 226 232 243 243 228 222 231 241 246 251 255 258 257 251 249 250 252 255
257 259 258 253 252 257 257 254 254 249 242 241 242 243 243 241 238 236 231 226 222 220 223 225 226 234 248 241 226 223 233 239 244 250 255 258 256 251 251 251 252 258
256 258 255 246 248 256 256 254 256 253 245 239 236 238 241 239 237 234 230 227 224 223 226 226 228 240 248 233 223 226 232 236 242 248 252 253 250 249 250 252 258 266
253 255 247 235 241 250 253 256 257 253 249 243 236 235 236 235 234 232 228 226 224 226 230 229 233 245 245 229 225 230 230 234 242 247 252 254 250 248 251 256 265 271
249 249 236 233 244 249 252 258 258 254 251 244 237 237 236 231 229 229 230 229 227 228 232 233 240 251 247 232 231 234 232 236 243 247 254 257 255 255 257 262 269 273
248 246 233 236 244 240 242 253 259 256 249 242 240 242 237 229 225 226 229 230 227 227 233 239 247 253 246 238 240 239 234 238 246 248 253 257 259 261 263 265 268 271
244 241 233 237 237 228 234 252 259 254 245 243 245 244 236 230 229 229 228 226 227 231 240 247 249 247 244 246 250 242 234 238 248 251 254 258 260 262 263 264 265 268
235 223 220 232 231 223 229 242 249 249 246 247 249 244 235 232 234 235 233 233 238 242 246 249 246 242 245 255 255 242 235 238 248 253 256 257 257 260 263 265 267 270
230 210 206 224 226 221 224 227 233 239 244 250 249 239 233 232 234 235 235 238 242 243 241 242 239 237 247 258 256 244 238 240 247 251 253 254 255 258 262 266 270 274
234 210 197 209 216 219 220 220 224 229 239 249 245 228 223 225 225 227 230 232 235 234 233 235 235 238 250 259 258 250 243 242 245 249 254 259 260 259 261 267 273 281
Height
1535 1537 1539 1540 1543 1545 1546 1547 1548 1549 1550 1552 1553 1554 1555 1555 1556 1557 1557 1558 1558 1559 1559 1560 1560 1561 1562 1562 1563 1563 1564 1564 1564 1564 1564 1564 1565 1565 1565 1566 1566 1565
1532 1534 1536 1538 1540 1542 1543 1544 1546 1547 1549 1550 1551 1552 1553 1553 1554 1555 1556 1556 1557 1557 1558 1559 1559 1560 1561 1562 1562 1563 1563 1563 1563 1563 1563 1563 1563 1564 1564 1564 1564 1564
1530 1531 1533 1535 1537 1539 1540 1542 1544 1546 1547 1548 1549 1550 1550 1551 1552 1553 1554 1554 1555 1556 1556 1557 1558 1559 1560 1561 1562 1562 1562 1562 1562 1562 1562 1562 1562 1562 1563 1563 1563 1563
1527 1529 1530 1533 1534 1536 1538 1540 1542 1543 1544 1545 1546 1547 1548 1549 1551 1551 1552 1552 1553 1554 1555 1556 1557 1557 1558 1559 1560 1561 1561 1561 1561 1561 1561 1561 1562 1561 1562 1562 1562 1562
1524 1526 1528 1530 1531 1533 1535 1537 1539 1540 1541 1543 1544 1545 1546 1548 1549 1549 1550 1551 1552 1553 1554 1555 1556 1556 1556 1557 1558 1559 1559 1560 1559 1560 1560 1560 1561 1561 1561 1561 1561 1561
1521 1522 1525 1527 1528 1530 1532 1535 1536 1537 1539 1540 1542 1543 1544 1545 1547 1548 1548 1549 1550 1551 1552 1554 1555 1555 1555 1555 1556 1557 1557 1558 1558 1559 1559 1559 1560 1560 1560 1560 1559 1559
1517 1519 1521 1523 1525 1527 1530 1532 1533 1534 1536 1537 1538 1539 1541 1542 1544 1545 1546 1546 1546 1546 1548 1550 1551 1552 1553 1553 1553 1554 1555 1556 1557 1557 1558 1558 1558 1558 1558 1558 1558 1558
1513 1515 1517 1520 1522 1524 1526 1528 1530 1531 1533 1534 1535 1537 1538 1539 1540 1542 1543 1544 1543 1543 1543 1545 1547 1548 1550 1550 1551 1552 1553 1553 1554 1555 1556 1556 1556 1556 1556 1556 1556 1556
1509 1511 1514 1516 1518 1520 1521 1525 1527 1528 1530 1532 1533 1534 1535 1536 1537 1538 1539 1540 1541 1542 1541 1541 1543 1544 1547 1548 1549 1549 1550 1551 1552 1553 1553 1554 1554 1554 1554 1554 1554 1553
1505 1507 1510 1512 1514 1515 1517 1521 1523 1524 1527 1529 1530 1531 1532 1533 1534 1534 1536 1537 1538 1539 1539 1539 1540 1540 1543 1546 1547 1548 1548 1549 1549 1550 1551 1551 1552 1552 1552 1552 1551 1551
1501 1503 1505 1507 1509 1510 1512 1516 1519 1520 1522 1525 1526 1527 1528 1529 1530 1531 1532 1533 1535 1536 1537 1537 1538 1538 1539 1541 1544 1546 1546 1546 1546 1547 1548 1548 1549 1549 1550 1550 1549 1549
1497 1499 1501 1502 1504 1506 1508 1511 1515 1515 1517 1520 1521 1523 1524 1525 1526 1526 1528 1529 1531 1532 1534 1535 1536 1537 1536 1537 1541 1543 1544 1543 1543 1544 1545 1546 1546 1547 1547 1547 1547 1547
1493 1495 1497 1498 1500 1502 1504 1507 1510 1511 1512 1516 1518 1519 1520 1520 1521 1522 1524 1525 1526 1526 1529 1532 1534 1535 1534 1535 1537 1540 1541 1542 1542 1542 1543 1544 1544 1544 1545 1545 1545 1545
1489 1492 1494 1495 1497 1499 1500 1503 1505 1507 1510 1515 1517 1516 1515 1515 1516 1518 1519 1520 1521 1521 1523 1527 1529 1531 1532 1532 1534 1536 1539 1540 1540 1540 1541 1541 1542 1542 1542 1543 1543 1543
1486 1488 1490 1493 1494 1495 1496 1499 1501 1503 1510 1515 1514 1512 1510 1510 1512 1514 1514 1516 1517 1517 1520 1522 1524 1527 1529 1530 1532 1533 1535 1537 1537 1538 1538 1539 1539 1539 1539 1540 1540 1540
1483 1485 1487 1489 1491 1491 1492 1495 1496 1499 1505 1509 1507 1506 1505 1506 1508 1509 1510 1510 1512 1515 1518 1520 1521 1523 1526 1528 1530 1531 1533 1535 1535 1535 1535 1536 1536 1536 1536 1536 1536 1537
1480 1482 1484 1485 1487 1487 1489 1490 1491 1494 1499 1501 1500 1500 1500 1501 1504 1506 1506 1506 1509 1514 1517 1518 1519 1520 1523 1526 1528 1529 1531 1532 1532 1533 1533 1533 1533 1533 1533 1533 1534 1534
1478 1479 1480 1482 1483 1484 1485 1486 1487 1489 1493 1494 1494 1495 1496 1497 1500 1502 1503 1503 1507 1512 1514 1515 1516 1518 1520 1523 1525 1527 1528 1529 1530 1530 1530 1530 1530 1531 1531 1531 1531 1531
1475 1475 1477 1478 1479 1481 1482 1482 1483 1485 1487 1489 1489 1490 1493 1494 1495 1497 1499 1502 1505 1509 1511 1513 1514 1516 1518 1520 1522 1524 1525 1526 1526 1526 1527 1527 1528 1528 1529 1529 1529 1528
1471 1472 1474 1475 1476 1477 1478 1478 1479 1481 1483 1485 1486 1487 1489 1490 1492 1493 1496 1500 1503 1506 1508 1510 1512 1513 1516 1518 1520 1521 1522 1523 1523 1523 1523 1524 1525 1526 1526 1526 1526 1526
1468 1470 1472 1472 1472 1473 1474 1475 1476 1477 1479 1481 1483 1484 1485 1486 1489 1491 1493 1497 1501 1504 1506 1507 1508 1510 1513 1515 1517 1518 1519 1520 1520 1520 1521 1522 1522 1523 1523 1524 1523 1523
1466 1467 1469 1469 1469 1470 1471 1472 1473 1474 1476 1478 1480 1481 1482 1484 1486 1489 1491 1495 1499 1501 1503 1505 1506 1508 1509 1511 1513 1515 1516 1517 1518 1518 1519 1519 1520 1521 1521 1521 1520 1520
1464 1465 1466 1466 1467 1468 1469 1470 1471 1471 1473 1475 1476 1477 1479 1481 1484 1486 1489 1492 1495 1498 1500 1502 1504 1505 1506 1508 1510 1512 1513 1514 1515 1516 1517 1518 1518 1518 1518 1517 1517 1517
1461 1463 1464 1464 1465 1467 1468 1469 1469 1470 1470 1472 1473 1474 1476 1479 1482 1485 1488 1491 1493 1495 1497 1499 1501 1502 1503 1505 1506 1508 1509 1511 1512 1513 1514 1515 1515 1515 1515 1514 1514 1514
1458 1460 1462 1463 1464 1465 1466 1467 1468 1468 1469 1469 1471 1472 1475 1478 1481 1484 1487 1489 1491 1492 1494 1496 1498 1499 1500 1501 1503 1505 1506 1507 1509 1510 1510 1511 1511 1511 1511 1511 1511 1511
1456 1458 1459 1461 1462 1464 1465 1466 1467 1467 1467 1468 1469 1472 1475 1478 1480 1483 1486 1487 1488 1490 1491 1493 1495 1496 1497 1498 1500 1502 1503 1504 1505 1506 1506 1506 1506 1507 1507 1507 1508 1508